SWA3602 PHOG-PHNL

Flight info

Callsign SWA3602
Flight time 0h 26m
Altitude 16000
Route MAUI5 OGG LNY JULLE5
Aircraft B38M/M-SADE2E3GHIJ4J7P2RWZ/LB1D1

Departure

Time 2026-04-21 07:20
Airport Kahului International Airport (PHOG)

Arrival

Time 2026-04-21 07:46
Airport Daniel K. Inouye International Airport (PHNL)
Time Latitude Longitude Altitude Speed Heading
2026-04-21 06:44 20.89152 -156.43779 47 ft 0 kts 304°
2026-04-21 07:08 20.89141 -156.43762 47 ft 4 kts 305°
2026-04-21 07:08 20.89126 -156.43738 42 ft 4 kts 303°
2026-04-21 07:08 20.89112 -156.43714 45 ft 4 kts 296°
2026-04-21 07:09 20.89102 -156.43687 46 ft 4 kts 282°
2026-04-21 07:09 20.89101 -156.43660 47 ft 4 kts 246°
2026-04-21 07:09 20.89110 -156.43648 44 ft 1 kts 215°
2026-04-21 07:09 20.89112 -156.43647 42 ft 0 kts 215°
2026-04-21 07:17 20.89106 -156.43651 47 ft 4 kts 215°
2026-04-21 07:17 20.89065 -156.43682 47 ft 10 kts 215°
2026-04-21 07:17 20.88987 -156.43740 46 ft 18 kts 215°
2026-04-21 07:18 20.88876 -156.43823 47 ft 9 kts 217°
2026-04-21 07:18 20.88887 -156.43844 47 ft 3 kts 20°
2026-04-21 07:18 20.88891 -156.43840 47 ft 0 kts 45°
2026-04-21 07:18 20.88891 -156.43839 47 ft 1 kts 45°
2026-04-21 07:19 20.88916 -156.43812 46 ft 12 kts 45°
2026-04-21 07:19 20.88981 -156.43720 47 ft 18 kts 86°
2026-04-21 07:19 20.88960 -156.43610 47 ft 16 kts 61°
2026-04-21 07:19 20.89171 -156.43445 48 ft 74 kts 35°
2026-04-21 07:20 20.89796 -156.42980 46 ft 142 kts 34°
2026-04-21 07:20 20.90729 -156.42276 312 ft 174 kts 33°
2026-04-21 07:20 20.91830 -156.41684 1029 ft 182 kts 15°
2026-04-21 07:20 20.93090 -156.41415 1775 ft 184 kts 10°
2026-04-21 07:21 20.94387 -156.41191 2400 ft 199 kts
2026-04-21 07:21 20.95869 -156.40938 2743 ft 231 kts
2026-04-21 07:21 20.97484 -156.40662 3569 ft 236 kts
2026-04-21 07:21 20.99166 -156.40366 4209 ft 255 kts
2026-04-21 07:22 21.00978 -156.40045 4843 ft 271 kts
2026-04-21 07:22 21.02834 -156.39717 5818 ft 270 kts
2026-04-21 07:22 21.04705 -156.39667 6726 ft 271 kts 347°
2026-04-21 07:22 21.06420 -156.40485 7541 ft 274 kts 323°
2026-04-21 07:23 21.07731 -156.41971 8333 ft 277 kts 300°
2026-04-21 07:23 21.08355 -156.43913 9195 ft 280 kts 275°
2026-04-21 07:23 21.08208 -156.45971 10024 ft 284 kts 261°
2026-04-21 07:23 21.07952 -156.48138 10580 ft 299 kts 264°
2026-04-21 07:24 21.07724 -156.50398 10928 ft 319 kts 264°
2026-04-21 07:24 21.07485 -156.52823 11354 ft 335 kts 264°
2026-04-21 07:24 21.07233 -156.55349 11853 ft 346 kts 264°
2026-04-21 07:24 21.06971 -156.57962 12340 ft 359 kts 264°
2026-04-21 07:25 21.06698 -156.60660 12859 ft 370 kts 264°
2026-04-21 07:25 21.06508 -156.62532 13213 ft 377 kts 264°
2026-04-21 07:25 21.06221 -156.65320 13760 ft 385 kts 264°
2026-04-21 07:25 21.05921 -156.68196 14304 ft 391 kts 264°
2026-04-21 07:26 21.05582 -156.71101 14830 ft 396 kts 259°
2026-04-21 07:26 21.04706 -156.73901 15391 ft 398 kts 251°
2026-04-21 07:26 21.04069 -156.76783 15715 ft 397 kts 266°
2026-04-21 07:26 21.03842 -156.79723 15894 ft 394 kts 266°
2026-04-21 07:27 21.03576 -156.82664 15984 ft 400 kts 265°
2026-04-21 07:27 21.03295 -156.85606 15996 ft 392 kts 265°
2026-04-21 07:27 21.03013 -156.88491 16007 ft 390 kts 265°
2026-04-21 07:27 21.02727 -156.91378 16010 ft 391 kts 265°
2026-04-21 07:28 21.02439 -156.94275 16014 ft 391 kts 265°
2026-04-21 07:28 21.02149 -156.97174 16012 ft 391 kts 265°
2026-04-21 07:28 21.01863 -157.00037 16010 ft 391 kts 265°
2026-04-21 07:28 21.01572 -157.02934 16010 ft 391 kts 265°
2026-04-21 07:29 21.01281 -157.05841 16016 ft 391 kts 265°
2026-04-21 07:29 21.00990 -157.08727 16014 ft 391 kts 265°
2026-04-21 07:29 21.00698 -157.11627 16012 ft 391 kts 265°
2026-04-21 07:29 21.00406 -157.14521 16016 ft 391 kts 265°
2026-04-21 07:30 21.00114 -157.17412 16014 ft 391 kts 265°
2026-04-21 07:30 20.99821 -157.20305 16005 ft 391 kts 265°
2026-04-21 07:30 20.99528 -157.23195 16001 ft 388 kts 265°
2026-04-21 07:30 20.99239 -157.26037 15799 ft 382 kts 265°
2026-04-21 07:31 20.98955 -157.28829 15568 ft 380 kts 265°
2026-04-21 07:31 20.98673 -157.31597 15344 ft 379 kts 265°
2026-04-21 07:31 20.98388 -157.34389 15084 ft 374 kts 265°
2026-04-21 07:31 20.98108 -157.37126 14815 ft 365 kts 264°
2026-04-21 07:32 20.97835 -157.39795 14556 ft 357 kts 264°
2026-04-21 07:32 20.97567 -157.42407 14319 ft 349 kts 264°
2026-04-21 07:32 20.97304 -157.44963 14078 ft 342 kts 264°
2026-04-21 07:32 20.97046 -157.47465 13840 ft 335 kts 264°
2026-04-21 07:33 20.96793 -157.49919 13568 ft 329 kts 264°
2026-04-21 07:33 20.96543 -157.52342 13207 ft 326 kts 264°
2026-04-21 07:33 20.96293 -157.54754 12776 ft 326 kts 264°
2026-04-21 07:33 20.96111 -157.57164 12337 ft 325 kts 273°
2026-04-21 07:34 20.96612 -157.59505 11933 ft 323 kts 289°
2026-04-21 07:34 20.97325 -157.61752 11691 ft 316 kts 288°
2026-04-21 07:34 20.98020 -157.63962 11462 ft 310 kts 288°
2026-04-21 07:34 20.98705 -157.66127 11230 ft 304 kts 288°
2026-04-21 07:35 20.99380 -157.68252 11002 ft 299 kts 288°
2026-04-21 07:35 21.00044 -157.70338 10782 ft 293 kts 288°
2026-04-21 07:35 21.00696 -157.72387 10552 ft 288 kts 288°
2026-04-21 07:36 21.01171 -157.73876 10384 ft 285 kts 288°
2026-04-21 07:36 21.01703 -157.75550 10204 ft 281 kts 288°
2026-04-21 07:36 21.02328 -157.77517 9971 ft 277 kts 288°
2026-04-21 07:36 21.02945 -157.79456 9726 ft 273 kts 288°
2026-04-21 07:37 21.03553 -157.81367 9462 ft 270 kts 288°
2026-04-21 07:37 21.04156 -157.83264 9191 ft 267 kts 289°
2026-04-21 07:37 21.04751 -157.85136 8921 ft 264 kts 289°
2026-04-21 07:37 21.05339 -157.86989 8650 ft 262 kts 289°
2026-04-21 07:38 21.05923 -157.88830 8389 ft 260 kts 289°
2026-04-21 07:38 21.06501 -157.90651 8124 ft 258 kts 289°
2026-04-21 07:38 21.07075 -157.92462 7863 ft 256 kts 289°
2026-04-21 07:38 21.07642 -157.94260 7604 ft 254 kts 288°
2026-04-21 07:39 21.07885 -157.96117 7319 ft 253 kts 272°
2026-04-21 07:39 21.08061 -157.97975 7075 ft 250 kts 282°
2026-04-21 07:39 21.08482 -157.99772 6842 ft 246 kts 287°
2026-04-21 07:39 21.09014 -158.01502 6627 ft 243 kts 291°
2026-04-21 07:40 21.09645 -158.03170 6403 ft 240 kts 295°
2026-04-21 07:40 21.10373 -158.04763 6166 ft 237 kts 299°
2026-04-21 07:40 21.11183 -158.06262 5918 ft 235 kts 303°
2026-04-21 07:40 21.12098 -158.07709 5649 ft 234 kts 307°
2026-04-21 07:41 21.13098 -158.09074 5406 ft 231 kts 310°
2026-04-21 07:41 21.14170 -158.10345 5152 ft 229 kts 315°
2026-04-21 07:41 21.15492 -158.11266 4845 ft 228 kts 342°
2026-04-21 07:41 21.17028 -158.11369 4580 ft 220 kts 12°
2026-04-21 07:42 21.18384 -158.10689 4287 ft 214 kts 36°
2026-04-21 07:42 21.19463 -158.09611 4011 ft 210 kts 48°
2026-04-21 07:42 21.20366 -158.08401 3746 ft 206 kts 52°
2026-04-21 07:42 21.21216 -158.07183 3462 ft 203 kts 53°
2026-04-21 07:43 21.22042 -158.05958 3133 ft 202 kts 53°
2026-04-21 07:43 21.22886 -158.04758 2811 ft 201 kts 52°
2026-04-21 07:43 21.23735 -158.03582 2544 ft 197 kts 52°
2026-04-21 07:43 21.24563 -158.02416 2242 ft 196 kts 53°
2026-04-21 07:44 21.25367 -158.01241 1961 ft 193 kts 54°
2026-04-21 07:44 21.26128 -158.00127 1676 ft 181 kts 53°
2026-04-21 07:44 21.26849 -157.99088 1387 ft 166 kts 52°
2026-04-21 07:44 21.27534 -157.98157 1176 ft 152 kts 51°
2026-04-21 07:45 21.28185 -157.97266 1032 ft 152 kts 52°
2026-04-21 07:45 21.28822 -157.96362 852 ft 152 kts 53°
2026-04-21 07:45 21.29462 -157.95459 701 ft 152 kts 52°
2026-04-21 07:45 21.30111 -157.94565 515 ft 152 kts 52°
2026-04-21 07:46 21.30741 -157.93652 290 ft 152 kts 53°
2026-04-21 07:46 21.31366 -157.92754 74 ft 150 kts 51°
2026-04-21 07:46 21.31961 -157.91914 27 ft 116 kts 54°
2026-04-21 07:46 21.32296 -157.91438 26 ft 48 kts 51°
2026-04-21 07:47 21.32494 -157.91157 26 ft 49 kts 53°
2026-04-21 07:47 21.32635 -157.90971 26 ft 18 kts 57°
2026-04-21 07:47 21.32724 -157.90830 28 ft 27 kts 53°
2026-04-21 07:47 21.32829 -157.90681 27 ft 22 kts 51°
2026-04-21 07:48 21.32940 -157.90683 30 ft 21 kts 324°
2026-04-21 07:48 21.33004 -157.90732 29 ft 19 kts 324°
2026-04-21 07:48 21.33037 -157.90856 29 ft 19 kts 257°
2026-04-21 07:49 21.32961 -157.90983 30 ft 21 kts 233°
2026-04-21 07:49 21.32867 -157.91117 28 ft 23 kts 233°
2026-04-21 07:49 21.32780 -157.91243 26 ft 17 kts 242°
2026-04-21 07:49 21.32774 -157.91355 26 ft 14 kts 270°
2026-04-21 07:50 21.32773 -157.91459 26 ft 15 kts 270°
2026-04-21 07:50 21.32774 -157.91574 26 ft 16 kts 271°
2026-04-21 07:50 21.32775 -157.91697 26 ft 17 kts 269°
2026-04-21 07:50 21.32774 -157.91824 26 ft 17 kts 270°
2026-04-21 07:51 21.32774 -157.91947 26 ft 16 kts 270°
2026-04-21 07:51 21.32775 -157.92057 26 ft 14 kts 269°
2026-04-21 07:51 21.32780 -157.92153 27 ft 12 kts 291°
2026-04-21 07:51 21.32831 -157.92174 27 ft 8 kts
2026-04-21 07:52 21.32892 -157.92165 26 ft 11 kts
2026-04-21 07:52 21.32975 -157.92149 26 ft 12 kts
2026-04-21 07:52 21.33039 -157.92122 26 ft 8 kts
2026-04-21 07:52 21.33064 -157.92105 26 ft 2 kts 68°
2026-04-21 07:53 21.33065 -157.92092 26 ft 2 kts 97°
2026-04-21 07:53 21.33063 -157.92074 26 ft 3 kts 98°
2026-04-21 07:53 21.33061 -157.92060 26 ft 1 kts 98°
2026-04-21 07:53 21.33061 -157.92059 26 ft 0 kts 98°